Flag for United Kingdom Weather past 2 weeks in Watford, England, United Kingdom

Now
63 °F

Partly sunny.


Feels Like: 63 °F
Forecast: 56 / 69 °F
Wind: 3 mph from Northwest

Location: Northolt

Current Time: Sep 1, 2014 at 8:18:08 PM

Latest Report: Sep 1, 2014 at 7:50 PM


Visibility: N/A

Pressure: 30.12 "Hg

Humidity: 100%

Dew point: 63 °F

Location of WatfordLocation

Historic Weather in Watford — Graph

°F

Watford temperature yesterday

Maximum temperature yesterday: 70 °F (at 3:50 PM)
Minimum temperature yesterday: 54 °F (at 5:50 AM)
Average temperature yesterday: 61 °F

Past Weeks' High & Low Weather Summary

 TemperatureHumidityPressure
High72 °F (Aug 28, 1:50 PM)100% (Aug 24, 6:50 AM)30.12 "Hg (Aug 24, 6:50 AM)
Low43 °F (Aug 21, 5:50 AM)39% (Aug 20, 2:50 PM)29.53 "Hg (Aug 25, 7:50 PM)
Average59 °F75%29.92 "Hg
* Reported Aug 17 6:50 PM — Sep 1 6:50 PM, Watford, Weather by CustomWeather, © 2014

Note: Actual official high and low records may vary slightly from our data, if they occured in-between our weather recording intervals... More about our weather records

Advertising

Watford weather history for previous 24 hours

 ConditionsComfort  
Time TempWeatherWind HumidityBarometerVisibility
6:50 PM
Sep 1
64 °FLight rain. Broken clouds.8 mph94%30.09 "Hg6 mi
5:50 PM66 °FBroken clouds.6 mph83%30.09 "HgN/A
4:50 PM66 °FPartly sunny.6 mph88%30.09 "HgN/A
3:50 PM66 °FBroken clouds.9 mph88%30.09 "HgN/A
2:50 PM64 °FDrizzle. Broken clouds.7 mph88%30.12 "Hg4 mi
1:50 PM64 °FDrizzle. Mostly cloudy.8 mph88%30.12 "Hg1 mi
12:50 PM63 °FDrizzle. Mostly cloudy.7 mph94%30.12 "HgN/A
12:01 PM61 °FDrizzle. Mostly cloudy.7 mph94%30.12 "Hg2 mi
11:50 AM61 °FDrizzle. Mostly cloudy.8 mph100%30.12 "HgN/A
10:54 AM61 °FDrizzle. Mostly cloudy.7 mph94%30.12 "Hg1 mi
9:50 AM61 °FDrizzle. More clouds than sun.7 mph94%30.12 "Hg4 mi
8:50 AM59 °FDrizzle. Broken clouds.5 mph88%30.12 "HgN/A
7:50 AM57 °FBroken clouds.2 mph88%30.12 "HgN/A
6:50 AM54 °FPassing clouds.2 mph94%30.09 "Hg6 mi
5:50 AM54 °FPassing clouds.5 mph94%30.12 "HgN/A
4:50 AM54 °FPassing clouds.2 mph94%30.12 "HgN/A
3:50 AM54 °FPassing clouds.3 mph94%30.12 "HgN/A
2:50 AM55 °FOvercast.2 mph94%30.12 "HgN/A
1:50 AM55 °FPassing clouds.2 mph88%30.12 "HgN/A
12:50 AM55 °FClear.1 mph88%30.12 "HgN/A
11:50 PM
Aug 31
57 °FClear.5 mph82%30.12 "Hg10 mi
10:50 PM57 °FClear.6 mph82%30.12 "Hg10 mi
9:50 PM59 °FClear.No wind82%30.09 "Hg10 mi
8:50 PM61 °FClear.2 mph72%30.09 "Hg10 mi
Weather by CustomWeather, © 2014

See weather overviewHow to use our weather pages